Location: Stoke Bliss
(52.2667°N, 2.5167°W)
Time: 20:39:22
(UTC+00:00)

Cosmos 1844 Rocket - Visible Passes

Search period start: 25 September 2022 00:00
Search period end: 05 October 2022 00:00
Orbit: 823 x 845 km, 71.0° (Epoch: 25 September)

Date Brightness Start Highest point End Pass type
(mag) Time Alt. Az. Time Alt. Az. Time Alt. Az.
25 Sep 4.1 19:34:23 10° NNW 19:38:59 25° NE 19:41:37 18° ENE visible
25 Sep 2.7 21:17:59 10° NNW 21:23:16 77° NNW 21:23:16 77° NNW visible
25 Sep 4.9 23:02:57 10° NW 23:04:55 16° WNW 23:04:55 16° WNW visible
26 Sep 4.1 19:17:08 10° NNW 19:21:39 23° NE 19:24:45 15° ENE visible
26 Sep 2.6 21:00:44 10° NNW 21:06:23 80° NE 21:06:23 80° NE visible
26 Sep 4.8 22:45:33 10° NW 22:48:03 19° WNW 22:48:03 19° WNW visible
27 Sep 4.2 18:59:53 10° NNW 19:04:18 22° NE 19:07:54 13° E visible
27 Sep 2.5 20:43:28 10° NNW 20:49:10 75° ENE 20:49:34 72° E visible
27 Sep 4.7 22:28:09 10° NW 22:31:13 21° W 22:31:13 21° W visible
28 Sep 4.2 18:42:39 10° NNW 18:46:57 21° NNE 18:51:06 10° E visible
28 Sep 2.6 20:26:12 10° NNW 20:31:53 70° ENE 20:32:46 60° ESE visible
28 Sep 4.5 22:10:47 10° NW 22:14:25 24° W 22:14:25 24° W visible
29 Sep 4.2 18:25:25 10° NNW 18:29:36 20° NNE 18:33:47 10° E visible
29 Sep 2.7 20:08:56 10° NNW 20:14:36 66° NE 20:16:00 49° ESE visible
29 Sep 4.3 21:53:26 10° NW 21:57:39 27° W 21:57:39 27° W visible
30 Sep 2.8 19:51:41 10° NNW 19:57:19 61° NE 19:59:17 39° ESE visible
30 Sep 4.1 21:36:04 10° NW 21:40:53 29° WSW 21:40:57 29° WSW visible
01 Oct 2.8 19:34:25 10° NNW 19:40:02 57° NE 19:42:36 31° ESE visible
01 Oct 4.0 21:18:44 10° NW 21:23:40 31° WSW 21:24:17 31° WSW visible
02 Oct 2.9 19:17:10 10° NNW 19:22:45 54° NE 19:26:00 24° ESE visible
02 Oct 3.9 21:01:24 10° NW 21:06:27 34° WSW 21:07:40 31° SW visible
03 Oct 3.0 18:59:55 10° NNW 19:05:28 50° NE 19:09:27 18° ESE visible
03 Oct 3.9 20:44:05 10° NW 20:49:14 37° WSW 20:51:07 29° SW visible
04 Oct 3.1 18:42:40 10° NNW 18:48:10 47° NE 18:52:59 13° ESE visible
04 Oct 3.8 20:26:45 10° NW 20:32:01 40° WSW 20:34:40 25° SSW visible
